Location: Bucquoy
(50.1391°N, 2.7097°E)
Time: 09:14:35
(UTC+00:00)

STARLINK-2564 - Pass Details

Date: 06 May 2021
Orbit: 348 x 350 km, 53.1° (Epoch: 22 June)

Event Time Altitude Azimuth Distance (km) Brightness Sun altitude
Exits shadow 02:48:59 21° 250° (WSW) 821 4.0 -12.1°
Maximum altitude 02:49:57 26° 216° (SW) 706 3.6 -12.0°
Drops below altitude 10° 02:52:25 10° 156° (SSE) 1,282 5.3 -11.7°
Sets 02:54:34 0° 143° (SE) 2,120 6.6 -11.4°
